Weather in Vesely

Russia / Oryol Oblast     52°26′29″N   36°04′15″E
temp.,
°C
wind,
m/s
gust,
m/s
humid.,
%
clouds,
%
prec.,
mm/h
press.,
hPa
HPBL,
m
10 may, mon
mon1000:00+3nw410825 0.0 1023185
03:00+2nnw411840 0.0 1024197
06:00+3nnw410830 0.0 1025221
09:00+9n610640 0.0 1025687
12:00+12n810505 0.0 10251742
15:00+12nne8114943 0.0 10241710
18:00+11nne71259100 0.0 10231068
21:00+10n71462100 0.0 1023733
11 may, tue
tue1100:00+9nne8166798 0.0 1023610
03:00+8nne6157888 0.0 1022472
06:00+9nne61681100 0.0 1022469
09:00+12ne8157952 0.0 1021660
12:00+16ene8117230 0.0 10201035
15:00+15e71183100 0.5 10211114
18:00+13e69773 0.3 10221114
21:00+9e311854 0.3 1024286
12 may, wed
wed1200:00+7ese5128811 0.0 1025472
03:00+5ene3994100 0.0 1025207
06:00+6ene498797 0.0 1024246
09:00+11ene5973100 0.0 1023626
12:00+13e5762100 0.1 10211328
15:00+13ese6764100 0.3 10191573
18:00+11e71088100 1.9 1018976
21:00+9se41094100 3.9 1018399
13 may, thu
thu1300:00+8e4896100 2.3 1017346
03:00+9se4109699 3.1 1016441
06:00+9se5119497 0.1 1017617
09:00+13sse588099 0.1 1017819
12:00+16sse686253 0.1 10161701
15:00+18sse5757100 0.1 10161862
18:00+17sse3668100 0.0 1015359
21:00+14ese3578100 0.0 101678
14 may, fri
fri1400:00+13ese4986100 0.0 1015168
03:00+12ese51387100 0.0 1015238
06:00+13ese61485100 0.0 1013303
09:00+16se61384100 0.5 1013618
12:00+17ese8138699 0.2 1011452
15:00+20s612716 1.8 1011747
18:00+19ese588159 0.9 1010556
21:00+16s3590100 2.9 101068